Location: Roanoke
(37.2710°N, 79.9420°W)
Time: 05:20:12
(UTC-05:00)

Transit 2A - Pass Details

Date: 28 November 2019
Orbit: 602 x 957 km, 66.7° (Epoch: 15 December)

Event Time Altitude Azimuth Distance (km) Brightness Sun altitude
Rises 08:27:33 0° 161° (SSE) 3,236 10.3 11.8°
Reaches altitude 10° 08:31:14 10° 135° (SE) 2,229 11.3 12.4°
Maximum altitude 08:33:37 13° 107° (ESE) 1,952 9.7 12.8°
Drops below altitude 10° 08:35:56 10° 78° (ENE) 2,133 9.0 13.1°
Sets 08:39:17 0° 52° (NE) 2,984 9.2 13.6°
